TimeEDT,TemperatureF,Dew PointF,Humidity,Sea Level PressureIn,VisibilityMPH,Wind Direction,Wind SpeedMPH,Gust SpeedMPH,PrecipitationIn,Events,Conditions,WindDirDegrees,DateUTC
12:52 AM,37.0,26.1,65,29.93,10.0,West,3.5,-,N/A,,Overcast,280,2013-03-28 04:52:00
1:52 AM,37.0,25.0,62,29.93,10.0,West,3.5,-,N/A,,Mostly Cloudy,280,2013-03-28 05:52:00
2:52 AM,35.1,25.0,67,29.93,10.0,West,4.6,-,N/A,,Overcast,260,2013-03-28 06:52:00
3:52 AM,36.0,26.1,67,29.93,10.0,Calm,Calm,-,N/A,,Overcast,0,2013-03-28 07:52:00
4:52 AM,35.1,26.1,70,29.93,10.0,West,4.6,-,N/A,,Overcast,260,2013-03-28 08:52:00
5:52 AM,35.1,26.1,70,29.95,10.0,Calm,Calm,-,N/A,,Overcast,0,2013-03-28 09:52:00
6:09 AM,35.6,26.6,70,29.93,10.0,Calm,Calm,-,N/A,,Overcast,0,2013-03-28 10:09:00
6:20 AM,35.6,26.6,70,29.93,10.0,Calm,Calm,-,N/A,,Overcast,0,2013-03-28 10:20:00
6:39 AM,33.8,26.6,75,29.94,10.0,Variable,3.5,-,N/A,,Overcast,0,2013-03-28 10:39:00
6:52 AM,34.0,27.0,75,29.97,10.0,West,5.8,-,N/A,,Overcast,280,2013-03-28 10:52:00
7:52 AM,34.0,28.0,79,29.99,5.0,WSW,4.6,-,0.00,Snow,Light Snow,240,2013-03-28 11:52:00
8:10 AM,33.8,28.4,81,29.97,10.0,WSW,5.8,-,0.00,,Overcast,240,2013-03-28 12:10:00
8:17 AM,33.8,28.4,81,29.97,10.0,WSW,4.6,-,0.00,,Overcast,250,2013-03-28 12:17:00
8:25 AM,33.8,28.4,81,29.98,10.0,West,3.5,-,0.00,,Overcast,260,2013-03-28 12:25:00
8:52 AM,35.1,28.9,78,30.00,10.0,West,4.6,-,0.00,,Overcast,270,2013-03-28 12:52:00
9:52 AM,36.0,28.9,76,30.01,10.0,Variable,3.5,-,N/A,,Overcast,0,2013-03-28 13:52:00
10:52 AM,37.0,28.0,70,30.02,10.0,Variable,4.6,-,N/A,,Overcast,0,2013-03-28 14:52:00
11:52 AM,39.0,28.9,67,30.02,10.0,NNW,4.6,-,N/A,,Overcast,340,2013-03-28 15:52:00
12:52 PM,39.9,28.0,63,30.02,10.0,Variable,4.6,-,N/A,,Overcast,0,2013-03-28 16:52:00
1:52 PM,42.1,28.0,58,30.01,10.0,Variable,5.8,-,N/A,,Overcast,0,2013-03-28 17:52:00
2:34 PM,44.6,28.4,53,29.98,10.0,WNW,5.8,-,N/A,,Mostly Cloudy,300,2013-03-28 18:34:00
2:52 PM,42.1,27.0,55,30.00,10.0,Variable,5.8,-,N/A,,Partly Cloudy,0,2013-03-28 18:52:00
3:52 PM,45.0,27.0,49,29.99,10.0,WNW,8.1,16.1,N/A,,Overcast,290,2013-03-28 19:52:00
4:52 PM,45.0,27.0,49,29.99,10.0,West,5.8,-,N/A,,Overcast,280,2013-03-28 20:52:00
5:52 PM,45.0,27.0,49,30.01,10.0,Variable,3.5,-,N/A,,Overcast,0,2013-03-28 21:52:00
6:52 PM,44.1,27.0,51,30.03,10.0,West,6.9,-,N/A,,Overcast,270,2013-03-28 22:52:00
7:52 PM,43.0,28.9,58,30.04,10.0,West,6.9,-,N/A,,Overcast,260,2013-03-28 23:52:00
8:52 PM,41.0,28.9,62,30.06,10.0,WSW,4.6,-,N/A,,Overcast,240,2013-03-29 00:52:00
9:52 PM,42.1,28.9,60,30.08,10.0,West,4.6,-,0.00,Rain,Light Rain,260,2013-03-29 01:52:00
10:52 PM,37.9,30.0,73,30.08,10.0,NW,3.5,-,0.00,,Overcast,310,2013-03-29 02:52:00
11:52 PM,41.0,28.9,62,30.09,10.0,WSW,8.1,-,N/A,,Overcast,250,2013-03-29 03:52:00